Home > Weather > Orenburg > Past weeks

Flag for Russia Weather for the Past 2 Weeks in Orenburg, Russia

Now
10 °F

Clear.


Feels Like: 4 °F
Forecast: 8 / 19 °F
Wind: 3 mph from Southeast

Location: Orenburg / Tsentralny

Current Time: Feb 13, 2016 at 10:46:10 PM

Latest Report: Feb 13, 2016 at 10:00 PM


Visibility: 10 mi

Pressure: 30.51 "Hg

Humidity: 85%

Dew point: 7 °F

Location of OrenburgLocation

Historic Weather in Orenburg — Graph

°F

Orenburg Temperature Yesterday

Maximum temperature yesterday: 23 °F (at 2:30 PM)
Minimum temperature yesterday: 3 °F (at 10:30 PM)
Average temperature yesterday: 12 °F

High & Low Weather Summary for the Past Weeks

 TemperatureHumidityPressure
High36 °F (Feb 2, 12:00 PM)100% (Feb 1, 4:00 AM)30.77 "Hg (Feb 1, 4:00 AM)
Low-2 °F (Feb 13, 6:30 AM)69% (Feb 9, 3:00 PM)29.59 "Hg (Feb 4, 5:00 AM)
Average23 °F90%30.18 "Hg
* Reported Jan 29 9:00 PM — Feb 13 9:30 PM, Orenburg, Weather by CustomWeather, © 2016

Note: Actual official high and low records may vary slightly from our data, if they occured in-between our weather recording intervals... More about our weather records

Advertising

Orenburg Weather History for the Previous 24 Hours

 ConditionsComfort  
Time TempWeatherWind HumidityBarometerVisibility
9:30 PM
Sat, Feb 13
9 °FClear.3 mph85%30.51 "Hg10 mi
9:00 PM9 °FClear.6 mph85%30.51 "Hg10 mi
8:30 PM14 °FClear.6 mph85%30.51 "Hg10 mi
8:00 PM12 °FSunny.8 mph85%30.51 "Hg10 mi
7:30 PM12 °FSunny.6 mph85%30.51 "Hg10 mi
7:00 PM10 °FSunny.6 mph85%30.51 "Hg10 mi
6:30 PM10 °FSunny.6 mph85%30.51 "Hg10 mi
6:00 PM12 °FSunny.6 mph85%30.51 "Hg10 mi
5:30 PM14 °FSunny.6 mph85%30.51 "Hg10 mi
5:00 PM16 °FSunny.3 mph86%30.51 "Hg10 mi
4:30 PM16 °FSunny.6 mph86%30.51 "Hg10 mi
4:00 PM16 °FPassing clouds.3 mph93%30.51 "HgN/A
3:30 PM16 °FPassing clouds.3 mph93%30.51 "HgN/A
3:00 PM16 °FSunny.1 mph86%30.51 "Hg10 mi
2:30 PM14 °FSunny.3 mph85%30.51 "Hg10 mi
2:00 PM12 °FSunny.3 mph85%30.51 "Hg10 mi
1:30 PM10 °FSunny.3 mph92%30.51 "Hg10 mi
1:00 PM9 °FClear.6 mph92%30.51 "Hg4 mi
12:30 PM9 °FClear.3 mph92%30.51 "Hg5 mi
12:00 PM9 °FIce fog.No wind85%30.51 "Hg6 mi
11:30 AM7 °FIce fog.1 mph85%30.54 "Hg6 mi
11:00 AM5 °FClear.1 mph85%30.51 "Hg6 mi
10:30 AM3 °FClear.No wind85%30.51 "Hg4 mi
10:00 AM3 °FClear.No wind85%30.54 "Hg4 mi
9:30 AM0 °FIce fog.1 mph84%30.51 "Hg2 mi
9:00 AM-2 °FFrigid.1 mph84%30.51 "Hg0 mi
8:30 AM-2 °FClear.1 mph77%30.51 "Hg4 mi
8:00 AM-2 °FClear.1 mph84%30.51 "Hg4 mi
7:30 AM0 °FClear.No wind84%30.51 "HgN/A
7:00 AM0 °FClear.No wind84%30.54 "Hg5 mi
6:30 AM-2 °FClear.1 mph84%30.54 "Hg5 mi
6:00 AM0 °FClear.No wind84%30.51 "Hg5 mi
5:30 AM1 °FSleet. Overcast.No wind78%30.51 "Hg4 mi
5:00 AM0 °FClear.No wind84%30.54 "HgN/A
4:30 AM1 °FClear.No wind78%30.54 "Hg5 mi
4:00 AM1 °FIce fog.1 mph78%30.54 "Hg3 mi
3:30 AM3 °FIce fog.1 mph78%30.54 "Hg3 mi
3:00 AM1 °FIce fog.1 mph85%30.54 "Hg2 mi
2:30 AM3 °FIce fog.1 mph85%30.54 "Hg3 mi
2:00 AM1 °FIce fog.1 mph85%30.54 "Hg3 mi
1:30 AM3 °FIce fog.1 mph85%30.54 "Hg3 mi
1:00 AM3 °FIce fog.3 mph85%30.54 "Hg3 mi
12:30 AM3 °FIce fog.1 mph85%30.57 "Hg3 mi
12:00 AM5 °FSleet. Ice fog.No wind85%30.57 "Hg3 mi
11:30 PM
Fri, Feb 12
5 °FClear.1 mph85%30.57 "Hg10 mi
11:00 PM5 °FClear.1 mph85%30.57 "Hg10 mi
10:30 PM3 °FClear.No wind85%30.57 "Hg10 mi
10:00 PM5 °FClear.1 mph92%30.57 "Hg10 mi
Weather by CustomWeather, © 2016

See weather overviewHow to use our weather pages